| time (UTC) | temp C | wind direction | speed KPH | gust KPH | rain 1hr cm | rain 24hr cm | rain mn cm | humidity % | barometer mb |
| 20260505011517 | 11 | 252 | 12.9 | 20.9 | 0.00 | 1.04 | 0.08 | 74 | 1004.8 |
| 20260505010016 | 11 | 219 | 11.3 | 22.5 | 0.00 | 1.04 | 0.08 | 74 | 1004.7 |
| 20260505004517 | 11 | 242 | 11.3 | 25.7 | 0.00 | 1.37 | 0.08 | 73 | 1004.6 |
| 20260505003012 | 11 | 233 | 11.3 | 24.1 | 0.00 | 1.37 | 0.08 | 73 | 1004.4 |
| 20260505001510 | 11 | 234 | 12.9 | 20.9 | 0.00 | 1.37 | 0.08 | 72 | 1004.4 |
| 20260505000009 | 11 | 227 | 16.1 | 33.8 | 0.00 | 1.37 | 0.08 | 71 | 1004.1 |
| 20260504234510 | 11 | 229 | 20.9 | 37.0 | 0.00 | 1.57 | 0.08 | 69 | 1003.7 |
| 20260504233005 | 11 | 219 | 17.7 | 32.2 | 0.00 | 1.57 | 0.08 | 68 | 1003.5 |
| 20260504231503 | 12 | 234 | 17.7 | 35.4 | 0.00 | 1.57 | 0.08 | 64 | 1003.3 |
| 20260504230003 | 12 | 259 | 22.5 | 38.6 | 0.00 | 1.60 | 0.08 | 60 | 1003.3 |
| 20260504224605 | 12 | 257 | 19.3 | 33.8 | 0.00 | 1.60 | 0.08 | 54 | 1003.0 |
| 20260504223101 | 12 | 247 | 20.9 | 33.8 | 0.00 | 1.60 | 0.08 | 48 | 1002.8 |
| 20260504221556 | 13 | 245 | 19.3 | 48.3 | 0.00 | 1.60 | 0.08 | 45 | 1002.6 |
| 20260504214557 | 13 | 235 | 16.1 | 33.8 | 0.00 | 1.60 | 0.08 | 44 | 1002.4 |
| 20260504213109 | 14 | 225 | 14.5 | 40.2 | 0.00 | 1.60 | 0.08 | 44 | 1002.4 |
| 20260504211551 | 14 | 259 | 24.1 | 48.3 | 0.00 | 1.60 | 0.08 | 45 | 1002.4 |
| 20260504210049 | 14 | 248 | 17.7 | 41.8 | 0.00 | 1.60 | 0.08 | 46 | 1002.2 |
| 20260504204558 | 13 | 248 | 30.6 | 51.5 | 0.00 | 1.60 | 0.08 | 46 | 1001.9 |
| 20260504203048 | 13 | 219 | 24.1 | 43.5 | 0.00 | 1.60 | 0.08 | 48 | 1001.8 |
| 20260504201544 | 13 | 253 | 16.1 | 30.6 | 0.00 | 1.60 | 0.08 | 51 | 1001.6 |
| 20260504200042 | 13 | 249 | 25.7 | 45.1 | 0.00 | 1.60 | 0.08 | 50 | 1001.6 |
| 20260504194540 | 13 | 257 | 25.7 | 54.7 | 0.00 | 1.60 | 0.08 | 51 | 1001.3 |
| 20260504193053 | 13 | 249 | 22.5 | 43.5 | 0.00 | 1.60 | 0.08 | 53 | 1001.2 |
| 20260504191536 | 12 | 259 | 20.9 | 48.3 | 0.00 | 1.60 | 0.08 | 55 | 1001.3 |
| 20260504190035 | 12 | 258 | 16.1 | 46.7 | 0.00 | 1.60 | 0.08 | 60 | 1000.9 |
| 20260504184530 | 12 | 259 | 17.7 | 43.5 | 0.00 | 1.60 | 0.08 | 62 | 1001.1 |
| 20260504183029 | 12 | 214 | 22.5 | 40.2 | 0.00 | 1.60 | 0.08 | 64 | 1000.8 |
| 20260504181528 | 12 | 225 | 22.5 | 40.2 | 0.00 | 1.60 | 0.08 | 65 | 1000.6 |
| 20260504180025 | 12 | 263 | 19.3 | 41.8 | 0.00 | 1.60 | 0.08 | 67 | 1000.5 |
| 20260504174522 | 12 | 244 | 22.5 | 45.1 | 0.00 | 1.60 | 0.08 | 66 | 1000.2 |
| 20260504173020 | 12 | 247 | 20.9 | 46.7 | 0.00 | 1.60 | 0.08 | 66 | 1000.0 |
| 20260504171517 | 11 | 257 | 25.7 | 48.3 | 0.00 | 1.60 | 0.08 | 69 | 1000.0 |
| 20260504050022 | 3 | 260 | 17.7 | 30.6 | 0.05 | 1.40 | 0.13 | 97 | 978.9 |
| 20260504044521 | 3 | 257 | 14.5 | 25.7 | 0.03 | 1.37 | 0.10 | 97 | 978.4 |
| 20260504043023 | 3 | 284 | 9.7 | 22.5 | 0.03 | 1.37 | 0.08 | 97 | 978.2 |
| 20260504041509 | 5 | 266 | 12.9 | 22.5 | 0.05 | 1.37 | 0.08 | 98 | 977.4 |
| 20260504040015 | 4 | 267 | 4.8 | 14.5 | 0.08 | 1.37 | 0.08 | 98 | 977.1 |
| 20260504034502 | 4 | 284 | 3.2 | 9.7 | 0.08 | 1.37 | 0.08 | 98 | 976.6 |
| 20260504033105 | 4 | 307 | 1.6 | 9.7 | 0.05 | 1.35 | 0.05 | 98 | 976.4 |
| 20260504031604 | 4 | 304 | 3.2 | 12.9 | 0.05 | 1.32 | 0.05 | 98 | 976.2 |
| 20260504030054 | 4 | 319 | 4.8 | 12.9 | 0.03 | 1.27 | 0.00 | 98 | 976.1 |
| 20260504024551 | 5 | 5 | 9.7 | 16.1 | 0.05 | 1.27 | 1.27 | 98 | 976.0 |
| 20260504023050 | 5 | 5 | 4.8 | 14.5 | 0.03 | 1.27 | 1.27 | 98 | 976.1 |
| 20260504021547 | 5 | 66 | 4.8 | 14.5 | 0.05 | 1.27 | 1.27 | 98 | 976.2 |
| 20260504020056 | 5 | 93 | 4.8 | 16.1 | 0.05 | 1.27 | 1.27 | 98 | 976.5 |
| 20260504014550 | 5 | 88 | 8.0 | 22.5 | 0.05 | 1.24 | 1.24 | 98 | 977.0 |
| 20260504013040 | 5 | 88 | 6.4 | 22.5 | 0.05 | 1.24 | 1.24 | 98 | 977.2 |